Regional Weather Roundup
Issued by NWS Sioux Falls, SD

Home | Current Version | Previous Version | Graphics & Text | Print | Product List | Glossary On
Versions: 1 2 3 4 5 6 7 8 9 10 11 12 13 14 15 16 17 18 19 20 21 22 23 24 25 26 27 28 29 30 31 32 33 34 35 36 37 38 39 40 41 42 43 44 45 46 47 48 49 50
000
ASUS43 KFSD 160110
RWRFSD

WEATHER ROUNDUP FOR SE SOUTH DAKOTA/SW MINNESOTA/NW IOWA
NATIONAL WEATHER SERVICE SIOUX FALLS SD
800 PM CDT TUE APR 15 2014

NOTE: "FAIR" INDICATES FEW OR NO CLOUDS BELOW 12,000 FEET WITH NO
SIGNIFICANT WEATHER AND OR OBSTRUCTIONS TO VISIBILITY.


SDZ038>040-050-052>070-160200-
SOUTHEAST SOUTH DAKOTA

CITY           SKY/WX    TMP DP  RH WIND       PRES   REMARKS
CHAMBERLAIN      N/A     56  29  35 SE20      29.59F
HURON          MOCLDY    48  25  40 SE15G24   29.69F
MITCHELL       PTCLDY    51  30  44 SE20G31   29.70F
SIOUX FALLS    MOCLDY    45  22  40 SE18G28   29.81F
WINNER         FAIR      64  24  21 W3        29.57F
YANKTON        PTCLDY    48  28  46 SE16G24   29.77F
$$

MNZ071-072-080-081-089-090-097-098-160200-
SOUTHWEST MINNESOTA

CITY           SKY/WX    TMP DP  RH WIND       PRES   REMARKS
FAIRMONT       MOCLDY    37  19  48 SE12      30.02R
JACKSON        MOCLDY    37  23  56 SE15      29.96F
LUVERNE        MOCLDY    43  23  45 SE14G22   29.87F
MARSHALL       CLOUDY    41  18  38 SE18      29.90F
MONTEVIDEO     CLOUDY    36  12  38 SE18      29.95F
PIPESTONE      MOCLDY    41  21  45 SE15      29.84F
REDWOOD FALLS  MOCLDY    37  13  37 E12       29.98S
TRACY          MOCLDY    40  19  44 SE13      29.92F
WINDOM         CLOUDY    37  21  52 SE12      29.95F
WORTHINGTON    MOCLDY    39  19  45 SE15      29.92F
$$

IAZ001>003-012>014-020>022-031-032-NEZ013-014-SDZ071-160200-
NORTHWEST IOWA

CITY           SKY/WX    TMP DP  RH WIND       PRES   REMARKS
CHEROKEE       PTCLDY    42  27  54 SE10      29.90F
DENISON        MOCLDY    45  27  49 SE15G21   29.90F
ESTHERVILLE    PTCLDY    36  25  64 SE13      29.96F
LE MARS        PTCLDY    45  25  45 SE13      29.85F
ORANGE CITY    PTCLDY    43  21  42 SE8G16    29.86F
SHELDON        CLOUDY    41  25  52 SE14      29.88S
SIOUX CITY     PTCLDY    48  28  46 SE16      29.84F
SPENCER        PTCLDY    41  26  55 SE15      29.93F
STORM LAKE     PTCLDY    41  27  56 S15       29.92F
$$

ABBREVIATIONS USED IN REMARKS
   TC - TEMPERATURE IN CELSIUS
  WCI - WIND CHILL INDEX
   HX - HEAT INDEX
  VSB - VISIBILITY




USA.gov is the U.S. government's official web portal to all federal, state and local government web resources and services.